Location: Driftpile
(55.3500°N, 115.7667°W)
Time: 00:41:51
(UTC+00:00)

N. Korean satellite - Pass Details

Date: 02 December 2021
Orbit: 446 x 492 km, 97.3° (Epoch: 17 January)

Event Time Altitude Azimuth Distance (km) Brightness Sun altitude
Rises 00:40:40 0° 192° (SSW) 2,539 10.7 -10.9°
Reaches altitude 10° 00:42:57 10° 205° (SSW) 1,656 10.0 -11.2°
Maximum altitude 00:46:02 27° 265° (W) 937 8.9 -11.6°
Drops below altitude 10° 00:49:07 10° 326° (NW) 1,643 9.4 -12.0°
Sets 00:51:23 0° 338° (NNW) 2,516 10.2 -12.3°
